Location: Toronto
(43.6667°N, 79.4167°W)
Time: 11:41:32
(UTC-04:00)

X-37B - Pass Details

Date: 27 June 2021
Orbit: 383 x 392 km, 45.0° (Epoch: 01 July)

Event Time Altitude Azimuth Distance (km) Brightness Sun altitude
Rises 00:34:02 0° 283° (WNW) 2,257 4.8 -22.2°
Reaches altitude 10° 00:36:06 10° 283° (WNW) 1,402 3.7 -22.2°
Enters shadow 00:37:14 20° 283° (WNW) 945 2.7 -22.3°
